This is the latest recevied weather packets stored in our database for station/object N5ZPR. If no packets are shown the sender has not sent any weather packets the latest 10 day(s).
| Time | Temp. | Humidity | Pressure | Rain* | Wind** | Luminosity | Snow |
|---|---|---|---|---|---|---|---|
| 1776973803 | 25° C | 74% | 1006.8 hPa | 0 mm | - | - | - |
| 1776971403 | 24.44° C | 76% | 1007.1 hPa | 0 mm | - | - | - |
| 1776970204 | 24.44° C | 76% | 1007.1 hPa | 0 mm | - | - | - |
| 1776964803 | 23.89° C | 78% | 1009.1 hPa | 0 mm | - | - | - |
| 1776964204 | 23.33° C | 81% | 1009.1 hPa | 0 mm | - | - | - |
| 1776963603 | 22.78° C | 82% | 1009.1 hPa | 0 mm | - | - | - |
| 1776960004 | 22.22° C | 83% | 1009.3 hPa | 0 mm | - | - | - |
| 1776956403 | 21.11° C | 86% | 1009.5 hPa | 0 mm | - | - | - |
| 1776955804 | 21.11° C | 86% | 1009.5 hPa | 0 mm | - | - | - |
| 1776954603 | 21.11° C | 86% | 1009.5 hPa | 0 mm | - | - | - |
| 1776954004 | 21.11° C | 87% | 1009.4 hPa | 0 mm | - | - | - |
| 1776951604 | 20.56° C | 87% | 1008.7 hPa | 0 mm | - | - | - |
| 1776948604 | 20.56° C | 87% | 1008.5 hPa | 0 mm | - | - | - |
| 1776944404 | 20.56° C | 87% | 1008.1 hPa | 0 mm | - | - | - |
| 1776943803 | 20.56° C | 87% | 1008.1 hPa | 0 mm | - | - | - |
| 1776940204 | 20.56° C | 88% | 1008.2 hPa | 0 mm | - | - | - |
| 1776939004 | 20.56° C | 89% | 1008.2 hPa | 0 mm | - | - | - |
| 1776934803 | 20.56° C | 89% | 1008.2 hPa | 0 mm | - | - | - |
| 1776934203 | 20.56° C | 89% | 1008.2 hPa | 0 mm | - | - | - |
| 1776933004 | 20.56° C | 89% | 1008.2 hPa | 0 mm | - | - | - |
| 1776925803 | 20.56° C | 89% | 1009.6 hPa | 0 mm | - | - | - |
| 1776925203 | 20.56° C | 88% | 1009.6 hPa | 0 mm | - | - | - |
| 1776922803 | 21.11° C | 87% | 1009.8 hPa | 0 mm | - | - | - |
* Rain latest hour (hover to see other rain measurements)
** Current wind speed in m/s (hover to see current wind gust speed)